Location: Boca do Mato
(22.9085°S, 43.2930°W)
Time: 22:26:47
(UTC+00:00)

Cosmos 2266 Rocket - Pass Details

Date: 14 July 2020
Orbit: 935 x 1007 km, 82.9° (Epoch: 10 August)

Event Time Altitude Azimuth Distance (km) Brightness Sun altitude
Rises 08:58:09 0° 355° (N) 3,706 7.2 -8.4°
Reaches altitude 10° 09:00:40 10° 354° (N) 2,757 6.6 -7.9°
Maximum altitude 09:07:01 83° 266° (W) 1,003 4.1 -6.5°
Drops below altitude 10° 09:13:20 10° 177° (S) 2,741 6.2 -5.2°
Sets 09:15:51 0° 176° (S) 3,683 6.8 -4.6°
